Погода в Старокучергановке

Россия / Астраханская область     46°19′34″N   47°57′15″E
темп.,
°C
ветер,
м/с
пор.,
м/с
влажн.,
%
обл.,
%
осадки,
мм/ч
давл.,
гПа
погр.,
м
28 сентября, вт
вт2801:00+13зсз610715 0.0 1014506
04:00+11зсз48815 0.0 1015250
07:00+10зсз35885 0.0 1016138
10:00+15сз456624 0.0 1016792
13:00+18сз554954 0.1 10171598
16:00+17ссз5544100 0.3 10181765
19:00+15с565794 0.0 1020751
22:00+14ссз3554100 0.0 1021476
29 сентября, ср
ср2901:00+14ссв3542100 0.0 1021415
04:00+13ссв3544100 0.0 1022450
07:00+12ссв4549100 0.0 1023695
10:00+12ссв4444100 0.0 10241107
13:00+13с344090 0.0 10241437
16:00+14ссв443494 0.0 10242028
19:00+13ссв5636100 0.0 1025830
22:00+12ссв353799 0.0 1026659
30 сентября, чт
чт3001:00+10ссв344483 0.0 1026284
04:00+9ссв345124 0.0 102798
07:00+7ссв23555 0.0 102856
10:00+12св34395 0.0 10291589
13:00+14ссв332934 0.0 10282202
16:00+15с432653 0.0 10282321
19:00+11св353459 0.0 1029222
22:00+9ююв11505 0.0 103064
1 октября, пт
пт101:00+9ссв22464 0.0 103140
04:00+7св35420 0.0 103181
07:00+6всв35430 0.0 103178
10:00+13всв45280 0.0 10321294
13:00+16в45220 0.0 10322053
16:00+16в55253 0.0 10302071
19:00+11юв48420 0.0 1032242
22:00+9в36550 0.0 1033112
2 октября, сб
сб201:00+8всв35530 0.0 103385
04:00+7всв35518 0.0 103388
07:00+7всв474979 0.0 1032117
10:00+14в5740100 0.0 10321176
13:00+16вюв663456 0.0 10321973
16:00+15в66366 0.0 10311559
19:00+11вюв48528 0.0 1032263
22:00+9в36605 0.0 1032129